User: anonymous   Login
Location: Bieujac
(44.5398°N, 0.1549°W)
Time: 11:04:10
(UTC+00:00)
Language:

STARLINK-37 - Orbit

View from above orbital plane
View from above orbital plane
View from above satellite
View from above satellite

Ground track
Ground track

The orbit data is extracted from the following two-line orbital elements,

1 44251U 19029S   20021.25001157  .00401032  00000-0  21821-1 0  9998
2 44251  52.9801 161.9477 0001565 105.5133 244.5572 15.12028489 36607
Epoch (UTC): 21 January 2020 06:00:01
Eccentricity: 0.0001565
inclination: 52.9801°
perigee height: 529 km
apogee height: 531 km
right ascension of ascending node: 161.9477°
argument of perigee: 105.5133°
revolutions per day: 15.12028489
mean anomaly at epoch: 244.5572°
orbit number at epoch: 3660

The dashed part of the orbit path shows where the satellite is in the earth's shadow,  

DLR